www.pogodaiklimat.ru

Погода и климат >> Архив погоды >> Австралия >> Квинсленд >> Куктаун


ПОГОДА в Куктауне

  • Прогноз погоды в Куктауне
  • Монитор погоды в Куктауне

АРХИВ ПОГОДЫ в Куктауне

Время (UTC), дата Ветер
(напр.,м/с)
 
Видим.   Явления Облачность Т
(С)
Тd
(С)
f
(%)
Тe
(С)
Тes
(С)
Комфортность P
(гПа)
Po
(гПа)
Тmin
(С)
Tmax
(С)
R
(мм)
R24
(мм)
S
(см)
08 18.05 ЮВ 5 н/о 10/10 600 м
[]
+25.0 +21.5 81 +32 +32 очень
душно
1015.3 1014.6
09 18.05 ЮВ 6 н/о н/о +25.2 +21.5 80 +32 +32 очень
душно
1015.8 1015.1
11 18.05 ЮВ 6 н/о 10/10 600 м
[]
+25.0 +21.7 82 +32 +32 очень
душно
1016.8 1016.1
12 18.05 ЮВ 6 н/о н/о +23.7 +22.3 92 +31 +31 очень
душно
1017.0 1016.3
14 18.05 ЮВ 6 7000 м в посл. час дождь {туман} 10/10 300 м
[]
+23.4 +22.2 93 +32 +32 очень
душно
1016.5 1015.8 +27.6
15 18.05 ЮВ 6 н/о н/о +23.5 +22.3 93 +31 +31 очень
душно
1016.1 1015.4
17 18.05 ЮВ 7 7000 м туман местами 10/10 200 м
[]
+23.5 +21.9 91 +30 +30 очень
душно
1015.3 1014.6
18 18.05 ЮВ 6 н/о н/о +23.8 +22.4 92 +31 +31 очень
душно
1014.9 1014.2
20 18.05 ЮВ 6 8000 м {туман} 10/10 300 м
[]
+24.0 +22.3 90 +31 +31 очень
душно
1015.2 1014.5
21 18.05 ЮВ 7 н/о н/о +23.8 +22.2 91 +31 +31 очень
душно
1015.7 1015.0
23 18.05 ЮВ 6 5000 м в посл. час дождь {туман} 10/10 300 м
[]
+24.3 +23.1 93 +32 +32 очень
душно
1016.9 1016.2
00 19.05 ЮВ 5 н/о н/о +25.1 +23.2 89 +34 +34 очень
душно
1016.9 1016.2
02 19.05 ЮВ 7 н/о в посл. час дождь {туман} 10/10 300 м
[]
+25.5 +23.2 87 +34 +34 очень
душно
1016.3 1015.6 +23.3
03 19.05 ЮВ 7 н/о н/о +26.7 +24.0 85 +37 +37 очень
душно
1015.8 1015.1
05 19.05 ЮВ 6 7000 м в посл. час дождь {туман} 10/10 300 м
[]
+25.2 +23.3 89 +34 +34 очень
душно
1014.7 1014.0
06 19.05 ЮВ 5 н/о н/о +24.1 +22.2 89 +31 +31 очень
душно
1014.7 1014.0
08 19.05 ЮВ 5 н/о в посл. час дождь {туман} 10/10 300 м
[]
+24.6 +22.7 89 +32 +32 очень
душно
1015.7 1015.0
09 19.05 ЮВ 4 н/о н/о +23.5 +22.1 92 +30 +30 очень
душно
1016.3 1015.6
11 19.05 ЮВ 5 н/о в посл. час дождь {туман} 10/10 300 м
[]
+24.1 +22.2 89 +31 +31 очень
душно
1017.5 1016.8
12 19.05 ЮВ 5 н/о н/о +24.0 +22.3 90 +31 +31 очень
душно
1017.7 1017.0
14 19.05 ЮВ 5 н/о {туман} 10/10 1000 м
[]
+24.2 +21.5 85 +31 +31 очень
душно
1017.6 1016.9 +27.0
15 19.05 ЮВ 5 н/о н/о +24.0 +21.3 85 +30 +30 очень
душно
1017.1 1016.4
17 19.05 ЮВ 5 8000 м в посл. час дождь {туман} 10/10 600 м
[]
+23.2 +21.8 92 +31 +31 очень
душно
1015.9 1015.2
18 19.05 В 8 н/о н/о +23.2 +21.1 88 +31 +31 очень
душно
1016.1 1015.4
20 19.05 ЮВ 4 н/о {туман} 10/10 600 м
[]
+22.7 +20.8 89 +30 +30 очень
душно
1016.7 1016.0
21 19.05 В 6 н/о н/о +23.9 +21.2 85 +30 +30 очень
душно
1016.9 1016.2
23 19.05 ЮВ 6 н/о {туман} 10/10 600 м
[]
+26.8 +21.8 74 +34 +34 очень
душно
1017.5 1016.8
00 20.05 ЮВ 6 н/о н/о +26.7 +21.5 73 +34 +34 очень
душно
1017.8 1017.1
02 20.05 ЮВ 7 н/о 1/1 600 м
[]
+26.8 +20.9 70 +34 +38 очень
душно
1016.9 1016.2 +22.4
03 20.05 ЮВ 8 н/о н/о +26.8 +21.1 71 +34 +34 очень
душно
1016.0 1015.3
05 20.05 ЮВ 7 н/о 3/3 1500 м
[]
+26.8 +20.9 70 +34 +35 очень
душно
1015.5 1014.8
06 20.05 ЮВ 6 н/о н/о +25.7 +21.1 76 +32 +32 очень
душно
1015.5 1014.8
08 20.05 ЮВ 4 н/о 9/9 600 м
[]
+23.7 +20.6 83 +30 +30 очень
душно
1016.2 1015.5
09 20.05 ЮВ 4 н/о н/о +22.8 +21.1 90 +30 +30 очень
душно
1016.7 1016.0
11 20.05 ЮВ 4 н/о {туман} н/о +23.0 +20.7 87 +30 +30 очень
душно
1017.8 1017.1
12 20.05 ЮВ 4 н/о н/о +23.4 +21.3 88 +31 +31 очень
душно
1017.6 1016.9
14 20.05 ЮВ 5 н/о 10/10 600 м
[]
+23.9 +21.2 85 +30 +30 очень
душно
1016.7 1016.0 +28.0
15 20.05 ЮВ 6 н/о н/о +24.2 +20.5 80 +30 +30 очень
душно
1016.1 1015.4
17 20.05 ЮВ 5 н/о 8/8 600 м
[]
+23.9 +20.6 82 +30 +30 очень
душно
1015.5 1014.8
18 20.05 ЮВ 5 н/о н/о +23.3 +20.1 82 +30 +30 очень
душно
1015.4 1014.7
20 20.05 ЮВ 5 н/о 3/3 600 м
[]
+23.0 +20.1 84 +30 +30 очень
душно
1015.7 1015.0
21 20.05 ЮВ 6 н/о н/о +23.0 +20.9 88 +30 +30 очень
душно
1016.2 1015.5
23 20.05 ЮВ 5 н/о {туман} 10/10 300 м
[]
+24.8 +22.3 86 +32 +32 очень
душно
1017.2 1016.5
00 21.05 ЮВ 6 н/о н/о +25.4 +22.1 82 +33 +33 очень
душно
1017.5 1016.8
02 21.05 ЮВ 6 н/о 1/1 600 м
[]
+27.2 +22.2 74 +35 +40 очень
душно
1016.8 1016.1 +22.6
03 21.05 ЮВ 7 н/о н/о +26.6 +21.4 73 +34 +34 очень
душно
1016.0 1015.3
05 21.05 ЮВ 6 н/о н/о +26.4 +20.5 70 +33 +33 очень
душно
1014.8 1014.1
06 21.05 ЮВ 5 н/о н/о +26.4 +20.7 71 +33 +33 очень
душно
1014.6 1013.9
08 21.05 ЮВ 4 н/о 1/1 1000 м
[]
+24.0 +20.3 80 +30 +30 очень
душно
1015.7 1015.0
09 21.05 ЮВ 6 н/о н/о +24.2 +20.1 78 +30 +30 очень
душно
1016.2 1015.5
11 21.05 ЮВ 5 н/о н/о +23.8 +20.5 82 +30 +30 очень
душно
1017.2 1016.5
12 21.05 ЮВ 5 н/о н/о +24.0 +21.1 84 +30 +30 очень
душно
1017.6 1016.9
14 21.05 ЮВ 3 н/о {туман} 10/10 600 м
[]
+22.1 +20.9 93 +29 +29 очень
душно
1016.7 1016.0 +27.8
15 21.05 ЮВ 3 н/о н/о +22.7 +21.2 91 +30 +30 очень
душно
1016.2 1015.5
17 21.05 ЮВ 5 н/о {туман} 10/10 600 м
[]
+24.6 +20.9 80 +31 +31 очень
душно
1015.8 1015.1
18 21.05 ЮВ 5 н/о н/о +24.5 +21.2 82 +31 +31 очень
душно
1015.7 1015.0
20 21.05 ЮВ 6 н/о 10/10 300 м
[]
+24.4 +21.3 83 +31 +31 очень
душно
1016.3 1015.6
21 21.05 ЮВ 6 н/о н/о +24.4 +20.9 81 +31 +31 очень
душно
1016.9 1016.2
23 21.05 ЮВ 6 н/о 10/10 300 м
[]
+24.9 +22.2 85 +32 +32 очень
душно
1018.0 1017.3
00 22.05 ЮВ 7 н/о н/о +27.2 +20.5 67 +34 +34 очень
душно
1018.4 1017.7
02 22.05 ЮВ 8 н/о 10/10 600 м
[]
+26.7 +21.5 73 +34 +34 очень
душно
1017.4 1016.7 +22.1
03 22.05 ЮВ 8 н/о н/о +27.3 +21.1 69 +34 +34 очень
душно
1016.4 1015.7
05 22.05 ЮВ 7 н/о 3/3 600 м
[]
+26.8 +21.6 73 +34 +36 очень
душно
1015.4 1014.7
06 22.05 ЮВ 6 н/о н/о +24.8 +21.3 81 +31 +31 очень
душно
1015.6 1014.9
08 22.05 ЮВ 6 н/о 8/8 600 м
[]
+24.1 +20.6 81 +30 +30 очень
душно
1016.1 1015.4
09 22.05 ЮВ 6 н/о н/о +23.5 +20.8 85 +29 +29 душно 1016.6 1015.9
11 22.05 ЮВ 5 н/о 10/10 300 м
[]
+23.9 +21.0 84 +30 +30 очень
душно
1017.4 1016.7
12 22.05 ЮВ 5 н/о н/о +23.6 +20.9 85 +30 +30 очень
душно
1017.5 1016.8
14 22.05 ЮВ 5 н/о 8/8 300 м
[]
+23.3 +20.6 85 +31 +31 очень
душно
1017.0 1016.3 +27.9
15 22.05 ЮВ 4 н/о н/о +23.3 +21.4 89 +31 +31 очень
душно
1016.6 1015.9
17 22.05 ЮВ 5 н/о в посл. час дождь {туман} 10/10 300 м
[]
+23.8 +21.9 89 +31 +31 очень
душно
1015.4 1014.7
18 22.05 ЮВ 5 н/о н/о +23.7 +20.8 84 +30 +30 очень
душно
1015.0 1014.3
20 22.05 ЮВ 7 н/о 10/10 600 м
[]
+24.7 +21.0 80 +31 +31 очень
душно
1015.6 1014.9
21 22.05 ЮВ 5 н/о н/о +24.1 +21.4 85 +31 +31 очень
душно
1016.2 1015.5
23 22.05 ЮВ 5 н/о 10/10 300 м
[]
+25.1 +22.0 83 +32 +32 очень
душно
1017.6 1016.9
00 23.05 ЮВ 6 н/о н/о +26.0 +22.5 81 +34 +34 очень
душно
1017.8 1017.1
02 23.05 ЮВ 7 4000 м в посл. час дождь {туман} 10/10 300 м
[]
+24.1 +22.0 88 +31 +31 очень
душно
1017.2 1016.5 +22.7
03 23.05 ЮВ 6 н/о н/о +25.0 +22.5 86 +33 +33 очень
душно
1016.5 1015.8
05 23.05 ЮВ 6 н/о в посл. час дождь {туман} 10/10 300 м
[]
+24.9 +22.6 87 +33 +33 очень
душно
1015.4 1014.7
06 23.05 ЮВ 6 н/о н/о +22.8 +21.3 91 +30 +30 очень
душно
1015.5 1014.8
08 23.05 ЮВ 5 н/о {туман} 10/10 600 м
[]
+24.2 +21.1 83 +31 +31 очень
душно
1015.8 1015.1
09 23.05 ЮВ 3 н/о н/о +22.7 +21.0 90 +30 +30 очень
душно
1016.5 1015.8
11 23.05 ЮВ 5 н/о {туман} 10/10 300 м
[]
+23.4 +21.5 89 +32 +32 очень
душно
1017.2 1016.5
12 23.05 ЮВ 5 н/о н/о +23.5 +21.6 89 +30 +30 очень
душно
1017.2 1016.5
14 23.05 ЮВ 5 н/о 1/0
[]
+23.1 +21.0 88 +31 +31 очень
душно
1016.6 1015.9 +26.5
15 23.05 ЮВ 5 н/о н/о +23.4 +21.1 87 +31 +31 очень
душно
1016.0 1015.3
17 23.05 ЮВ 5 н/о 10/10 300 м
[]
+23.3 +21.2 88 +31 +31 очень
душно
1015.0 1014.3
18 23.05 ЮВ 5 н/о н/о +23.0 +21.1 89 +31 +31 очень
душно
1014.7 1014.0
20 23.05 ЮВ 5 н/о 10/10 300 м
[]
+23.1 +20.8 87 +31 +31 очень
душно
1015.3 1014.6
21 23.05 ЮВ 6 н/о н/о +23.2 +20.7 86 +31 +31 очень
душно
1015.8 1015.1
23 23.05 ЮВ 6 н/о 9/9 300 м
[]
+24.8 +21.3 81 +31 +32 очень
душно
1017.1 1016.4
00 24.05 ЮВ 5 н/о н/о +24.1 +21.4 85 +31 +31 очень
душно
1017.3 1016.6
02 24.05 ЮВ 6 н/о {туман} 5/5 600 м
[]
+25.1 +22.0 83 +32 +36 очень
душно
1016.5 1015.8 +22.7
03 24.05 ЮВ 6 н/о н/о +26.0 +21.4 76 +33 +33 очень
душно
1015.6 1014.9
05 24.05 ЮВ 5 н/о {туман} 10/10 600 м
[]
+24.8 +20.5 77 +31 +31 очень
душно
1014.8 1014.1
06 24.05 ЮВ 5 н/о н/о +24.4 +19.9 76 +30 +30 очень
душно
1015.0 1014.3
08 24.05 ЮВ 3 н/о 10/10 1500 м
[]
+22.6 +19.4 82 +29 +29 очень
душно
1015.6 1014.9
09 24.05 ЮВ 5 н/о н/о +22.5 +19.9 85 +29 +29 очень
душно
1016.1 1015.4
11 24.05 ЮВ 5 н/о 1/1 600 м
[]
+23.1 +20.4 85 +30 +30 очень
душно
1017.0 1016.3
12 24.05 ЮВ 5 н/о н/о +23.4 +20.5 84 +31 +31 очень
душно
1016.8 1016.1
14 24.05 ЮВ 4 н/о 8/8 600 м
[]
+23.0 +20.1 84 +30 +30 очень
душно
1016.3 1015.6 +26.8
15 24.05 ЮВ 4 н/о н/о +23.2 +20.2 83 +30 +30 очень
душно
1015.9 1015.2
17 24.05 ЮВ 3 н/о 1/0
[]
+22.7 +19.5 82 +29 +29 очень
душно
1015.3 1014.6
18 24.05 ЮВ 3 н/о н/о +22.4 +19.4 83 +28 +28 душно 1015.1 1014.4
20 24.05 ЮВ 3 н/о н/о +22.0 +19.5 86 +28 +28 душно 1015.2 1014.5
21 24.05 Ю 2 н/о н/о +21.5 +19.6 89 +27 +27 душно 1015.6 1014.9
23 24.05 ЮВ 5 н/о н/о +25.4 +20.9 76 +32 +32 очень
душно
1016.6 1015.9
00 25.05 ЮВ 7 н/о н/о +25.9 +20.5 72 +32 +32 очень
душно
1016.4 1015.7
02 25.05 ЮВ 6 н/о 4/4 600 м
[]
+26.4 +20.9 72 +33 +36 очень
душно
1015.4 1014.7 +21.1
03 25.05 ЮВ 6 н/о н/о +26.8 +20.6 69 +33 +33 очень
душно
1014.4 1013.7
05 25.05 ЮВ 5 н/о 1/1 600 м
[]
+26.6 +20.2 68 +33 +36 очень
душно
1013.4 1012.7
06 25.05 ЮВ 4 н/о н/о +26.4 +20.9 72 +33 +33 очень
душно
1013.4 1012.7

 

Местоположение метеостанции Куктаун (Квинсленд, Австралия): широта -15.45 долгота 145.18 высота над уровнем моря 6 м.

В архиве по умолчанию представлена погода в Куктауне за последнюю неделю. Архивные данные за месяц целиком и за предыдущие месяцы, начиная с января 2011 года, Вы можете получить, выбрав интересующий диапазон дат из раскрывающегося списка и нажав кнопку "Ввод!".


*Определитесь, кто Вы:
робот инопланетянин человек

Внимание! Время в таблицах - всемирное. Для получения местного времени необходимо прибавить поправку, которая равна 10 ч.

Смотрите также архив погоды в соседних городах и на ближайших метеорологических станциях:

Погода на Мысе Флэттери (Квинсленд, Австралия) (55 км)
Погода на Острове Лоу (Квинсленд, Австралия) (112 км)
Погода в Палмервилле (Квинсленд, Австралия) (134 км)
Погода в Кэрнсе (Квинсленд, Австралия) (170 км)
Погода на Арлингтон рифе (Квинсленд, Австралия) (173 км)
Погода в Марибе (Квинсленд, Австралия) (182 км)
Погода на Бугенвильском рифе (Квинсленд, Австралия) (207 км)
Погода в Юг Джонстон (Квинсленд, Австралия) (255 км)
Погода в Коэн аэропорту (Квинсленд, Австралия) (290 км)
Погода на Холмс Рифе (Квинсленд, Австралия) (308 км)

Пояснения к столбцам:

Ветер - указаны скорость ветра в м/с - средняя за 10 мин, порывы в срок и между сроками (в фигурных скобках) и направление, откуда дует ветер: С - северный, СВ - северо-восточный, В - восточный, ЮВ - юго-восточный, Ю - южный, ЮЗ - юго-западный, З - западный, СЗ - северо-западный.
Видимость - горизонтальная дальность видимости в метрах или километрах. При видимости от 1 до 10 км при отсутствии осадков обычно наблюдается дымка, при ухудшении видимости до 1 км и менее - туман. В сухую погоду видимость может ухудшаться дымом, пылью или мглою.
Явления - указаны атмосферные явления, наблюдавшиеся в срок или в последний час перед сроком; фигурными скобками обозначены явления, наблюдавшиеся между сроками (за 1-3 часа до срока); квадратными скобками обозначены град или гололедные отложения с указанием их диаметра в мм.
Облачность - указаны через наклонную черту общая и нижняя облачность в баллах и высота нижней границы облаков в метрах; квадратными скобками обозначены формы облаков: Ci - перистые, Cs - перисто-слоистые, Cc - перисто-кучевые, Ac - высококучевые, As - высокослоистые, Sc - слоисто-кучевые, Ns - слоисто-дождевые, Cu - кучевые, Cb - кучево-дождевые. Подробнее классификацию облаков см. в Атласе облаков (PDF).
T - Температура воздуха - температура, измеренная на высоте 2 м над землей.
Td - Температура точки росы - температура, при понижении до которой содержащийся в воздухе водяной пар достигнет насыщения.
f - Относительная влажность воздуха - влажноcть воздуха, измеренная на высоте 2 м над землей.
Te - Эффективная температура - температура, которую ощущает одетый по сезону человек в тени. Характеристика душности погоды. При расчете учитывается влияние влажности воздуха и скорости ветра на теплоощущения человека.
Tes - Эффективная температура на солнце - температура, которую ощущает человек, с поправкой на солнечный нагрев. Характеристика знойности погоды. Зависит от высоты солнца над горизонтом, облачности и скорости ветра. Ночью, в пасмурную погоду, а также при ветре 12 м/с и более поправка равна нулю.
P - Атмосферное давление - приведенное к уровню моря атмосферное давление.
Po - Атмосферное давление - измеренное на уровне метеостанции атмосферное давление.
Tmin - Минимальная температура - минимум температуры воздуха на высоте 2 м над землей.
Tmax - Максимальная температура - максимум температуры воздуха на высоте 2 м над землей.
R - Количество осадков - Количество выпавших осадков за период времени, мм. При наведении курсора мыши на число - период времени, за который выпало указанное количество осадков.
R24 - Количество осадков - Количество выпавших осадков за 24 часа, мм.
S - Снежный покров - Высота снежного покрова, см. При наведении курсора мыши на число - состояние снежного покрова и степень покрытия местности в баллах.